User: anonymous   Login
Location: Brunembert
(50.7122°N, 1.8935°E)
Time: 23:05:14
(UTC+00:00)
Language:

Cosmos 1745 Rocket - Orbit

View from above orbital plane
View from above orbital plane
View from above satellite
View from above satellite

Ground track
Ground track

The orbit data is extracted from the following two-line orbital elements,

1 16728U 86037B   21169.58639653  .00000104  00000-0  89189-4 0  9996
2 16728  82.9543 333.0625 0032225  73.2036 357.4226 13.76748751761534
Epoch (UTC): 18 June 2021 14:04:24
Eccentricity: 0.0032225
inclination: 82.9543°
perigee height: 952 km
apogee height: 999 km
right ascension of ascending node: 333.0625°
argument of perigee: 73.2036°
revolutions per day: 13.76748751
mean anomaly at epoch: 357.4226°
orbit number at epoch: 76153

The dashed part of the orbit path shows where the satellite is in the earth's shadow,  

DLR